Regional Weather Roundup
Issued by NWS

Home | Current Version | Previous Version | Text Only | Print | Product List | Glossary Off
Versions: 1 2 3 4 5 6 7 8 9 10 11 12 13 14 15 16 17 18 19 20 21 22 23 24 25 26 27 28 29 30 31 32 33 34 35 36 37 38 39 40 41 42 43 44 45 46 47 48 49 50

597
ASUS45 KTFX 200010
RWRMT
MONTANA REGIONAL WEATHER ROUNDUP
NATIONAL WEATHER SERVICE GREAT FALLS MT
600 PM MDT SAT AUG 19 2017

NOTE: "FAIR" INDICATES FEW OR NO CLOUDS BELOW 12000 FEET WITH NO
SIGNIFICANT WEATHER AND/OR OBSTRUCTIONS TO VISIBILITY.

MTZ001>007-043-200100-
WEST OF THE DIVIDE

CITY           SKY/WX    TMP DP  RH WIND       PRES   REMARKS
KALISPELL      PTSUNNY   80  36  20 W9        29.95S
MISSOULA       MOSUNNY   78  35  21 N14G22    30.00S
BUTTE          CLOUDY    78  24  13 NW16G25   30.04S
MULLAN PASS    SUNNY     61  36  39 VRB5      30.17F
ANACONDA         N/A     75  27  16 W18G24    30.02R
DEER LODGE       N/A     73  37  27 NW22G31   30.03S
EUREKA           N/A     79  36  21 MISG      29.95R
HAMILTON         N/A     75  39  27 W8G21     30.00S
LIBBY            N/A     79  37  22 W8        29.97S
$$

MTZ008-052>055-200100-
SOUTHWEST MONTANA

CITY           SKY/WX    TMP DP  RH WIND       PRES   REMARKS
BOZEMAN        SUNNY     84  28  13 CALM      29.94S
DILLON         SUNNY     80  44  27 W6        29.98F
W YELLOWSTONE  SUNNY     75  23  14 SW17      30.13F
THREE FORKS      N/A     85  34  16 W17       29.92F
TWIN BRIDGES     N/A     82  30  15 W2        29.97F
$$

MTZ009-010-012-014-046-048-049-054-200100-
EAST SLOPES AND CENTRAL MONTANA

CITY           SKY/WX    TMP DP  RH WIND       PRES   REMARKS
CUT BANK       SUNNY     71  37  28 VRB3      29.98F
GREAT FALLS    CLOUDY    74  37  26 NE10      29.97S
MALMSTROM AFB  CLOUDY    73  38  27 NE14      29.96S
HELENA         CLOUDY    82  36  19 NW18      29.95R HAZE
BOWMANS CRNR     N/A     72  39  29 NE10      29.97S
CHOTEAU          N/A     73  39  29 VRB7      30.01S
CONRAD           N/A     74  44  34 CALM      30.01F
FAIRFIELD        N/A     72  37  28 N8        29.98S
POWER            N/A     71  37  28 N3        29.98S
$$

MTZ011-013-016-021-045-047-050-051-200100-
NORTH CENTRAL MONTANA

CITY           SKY/WX    TMP DP  RH WIND       PRES   REMARKS
HAVRE          CLOUDY    75  36  24 NW13      29.95S
LEWISTOWN      PTSUNNY   74  38  27 N10       29.99R
N BAR RANCH      N/A     73  36  25 NE9       30.02S
CHINOOK          N/A     73  37  27 N7        29.94R
DENTON           N/A     73  38  28 N8        29.94S
GRASS RANGE      N/A     75  35  23 N15G21    29.95R
WINIFRED         N/A     74  36  25 NW12      29.97R
$$

MTZ017>020-022>027-061-062-200100-
NORTHEAST MONTANA

CITY           SKY/WX    TMP DP  RH WIND       PRES   REMARKS
GLASGOW        CLOUDY    78  36  21 N14G21    29.90R
JORDAN           N/A     80  37  21 N13       29.92R
SIDNEY         SUNNY     80  45  28 NW16      29.85R
WOLF POINT     CLOUDY    80  39  23 NW14      29.88R
MALTA          SUNNY     77  36  22 N12G17    29.92S
PLENTYWOOD       N/A     75  36  23 NW16G23   29.87R
POPLAR           N/A     79  43  27 NW14G20   29.87S
$$

MTZ028>42-056>058-200100-
SOUTHCENTRAL AND SOUTHEAST MONTANA

CITY           SKY/WX    TMP DP  RH WIND       PRES   REMARKS
BAKER          MOSUNNY   81  39  22 NW17      29.90R
BILLINGS       MOSUNNY   85  29  13 E5        29.90F
LIVINGSTON     SUNNY     86  30  13 W13       29.93S
MILES CITY     MOSUNNY   84  36  18 N14       29.89S
BIG TIMBER     SUNNY     84  28  13 NW8G16    29.95S
HARLOWTON      PTSUNNY   78  34  20 MISG      29.95F
LAUREL           N/A     85  35  16 NE2       29.90S
$$

REGIONAL REPORTS...DAKOTAS

CITY           SKY/WX    TMP DP  RH WIND       PRES   REMARKS
WILLISTON      SUNNY     78  43  28 NW22G30   29.84R
MINOT          SUNNY     83  51  33 W24G33    29.71R
DICKINSON      MOSUNNY   79  49  34 NW14      29.83R
BEACH            N/A     79  43  27 N17       29.91R
CROSBY           N/A     77  41  27 NW23G29   29.83R
TIOGA            N/A     75  43  31 NW21G28   29.84R
WATFORD CITY     N/A     81  46  30 NW17G24   29.82R
BISMARCK       MOSUNNY   86  64  47 SW5       29.74R
GRAND FORKS    MOSUNNY   82  63  52 S16       29.71S
FARGO          MOSUNNY   78  62  57 S15G23    29.76S
BUFFALO SD       N/A     83  46  27 NW6       29.82S
RAPID CITY     SUNNY     90  43  19 N21       29.85R
$$

REGIONAL REPORTS...WYOMING/IDAHO/WASHINGTON

CITY           SKY/WX    TMP DP  RH WIND       PRES   REMARKS
GILLETTE       CLOUDY    83  30  14 NE15      29.95R
SHERIDAN       PTSUNNY   84  36  18 NE3       29.94S
BUFFALO WY     CLOUDY    80  31  16 N10       30.01S HAZE
CODY           CLOUDY    84  33  16 VRB5      29.98S
IDAHO FALLS    MOSUNNY   87  33  14 SW16G26   29.99F
SALMON         CLOUDY    82  40  22 N13       29.91F HAZE
BOISE          SUNNY     86  34  15 NW13      29.94F
SPOKANE        MOSUNNY   79  33  19 NW10G17   30.02F
$$

REGIONAL REPORTS...ALBERTA

CITY           SKY/WX    TMP DP  RH WIND       PRES   REMARKS
EDMONTON       MOSUNNY   66  43  42 W9        29.91S
CALGARY        MOSUNNY   66  36  32 S8G18     29.98S
LETHBRIDGE     MOSUNNY   68  37  32 E14       29.97F
MEDICINE HAT   MOSUNNY   70  32  24 NW5       29.98F
$$

REGIONAL REPORTS...SASKATCHEWAN

CITY           SKY/WX    TMP DP  RH WIND       PRES   REMARKS
SWIFT CURRENT  SUNNY     66  34  30 NW18      29.95S
REGINA         PTSUNNY   72  37  28 NW22G29   29.85R
SASKATOON      MOSUNNY   68  37  32 NW21G31   29.85R
$$




USA.gov is the U.S. government's official web portal to all federal, state and local government web resources and services.